Regional Weather Roundup
Issued by NWS Huntsville, AL

Home | Current Version | Previous Version | Text Only | Print | Product List | Glossary On
Versions: 1 2 3 4 5 6 7 8 9 10 11 12 13 14 15 16 17 18 19 20 21 22 23 24 25 26 27 28 29 30 31 32 33 34 35 36 37 38 39 40 41 42 43 44 45 46 47 48 49 50
000
ASUS44 KHUN 201310
RWRHUN

WEATHER ROUNDUP FOR THE TENNESSEE VALLEY
NATIONAL WEATHER SERVICE HUNTSVILLE AL
700 AM CST TUE FEB 20 2018

ALZ001>004-201400-
NORTHWEST ALABAMA

CITY           SKY/WX    TMP DP  RH WIND       PRES   REMARKS
SHOALS AIRPORT FAIR      61  56  83 SE9       30.23R
$$

ALZ005>007-016-201400-
NORTH CENTRAL ALABAMA

CITY           SKY/WX    TMP DP  RH WIND       PRES   REMARKS
DECATUR AP     FAIR      60  58  92 SE7       30.26R
HUNTSVILLE AP  FAIR      59  58  96 E7        30.25R
MERIDIANVILLE  FAIR      62  57  84 SE8       30.26R
REDSTONE ARSN  FAIR      61  58  90 S9        30.25R
VINEMONT AP    FAIR      60  56  87 SE6       30.28R
$$

ALZ008>010-201400-
NORTHEAST ALABAMA

CITY           SKY/WX    TMP DP  RH WIND       PRES   REMARKS
FORT PAYNE     MOCLDY    59  57  94 MISG      30.29F
SCOTTSBORO AP  CLOUDY    63  61  94 VRB5      30.29S
$$

TNZ076-096-097-201400-
SOUTHEASTERN MIDDLE TENNESSEE

CITY           SKY/WX    TMP DP  RH WIND       PRES   REMARKS
TULLAHOMA      CLEAR     61  57  88 SE5       30.26R
WINCHESTER     CLEAR     61  55  82 SE15      30.27S
$$

...SURROUNDING SITES...

CITY           SKY/WX    TMP DP  RH WIND       PRES   REMARKS
ATLANTA        FOG       61  61 100 SE7       30.38R VSB 1/4
ANNISTON       FAIR      61  57  87 NE6       30.31S
BIRMINGHAM     FAIR      64  56  75 SE7       30.28F
CHATTANOOGA    CLOUDY    57  56  96 CALM      30.33R FOG
CORINTH        MOCLDY    64  61  88 S9        30.18R
DALTON         MOCLDY    54  54 100 CALM      30.35R FOG
GADSDEN        CLOUDY    59  59 100 E5        30.30F
GOLDEN TRNGL   CLOUDY    64  62  93 S9        30.22R
HALEYVILLE     FAIR      60  60 100 S12       30.26R
JACKSON TN     FAIR      66  59  78 S9        30.13R
MEMPHIS        FAIR      66  61  84 S16G23    30.12R
NASHVILLE      MOCLDY    64  57  78 S8        30.22R
OXFORD MS      CLOUDY    63  59  88 SE6       30.18R
ROME           CLOUDY    62  61  96 S6        30.32F
SAVANNAH       CLOUDY    64  59  82 S13       30.19R
SELMER         CLOUDY    64  61  88 S10G17    30.18R
TUPELO         CLOUDY    65  61  87 SE9       30.19R
TUSCALOOSA     MOCLDY    61  61 100 S3        30.25R
$$

...GULF COAST WEATHER...

CITY           SKY/WX    TMP DP  RH WIND       PRES   REMARKS
GULFPORT       FAIR      70  69  97 SE18      30.16S
PASCAGOULA     CLOUDY    70  67  90 SE12      30.20R
MOBILE         CLOUDY    69  67  93 SE13      30.22R FOG
GULF SHORES    FAIR      68  67  98 E12       30.22F
PENSACOLA      FAIR      69  65  86 SE8       30.23
DESTIN         CLOUDY    70  64  81 E13       30.26R
PANAMA CITY    FAIR      67  66  96 E7        30.28R
APPALACHICOLA  MOCLDY    69  69 100 SE13      30.28R
$$




USA.gov is the U.S. government's official web portal to all federal, state and local government web resources and services.